• In Deutschland
  • Länderverzeichnis
  • Für 7 Tage
  • Wassertemperatur
  • Satellitenkarten
  • Wetterkarte
  • Widgets
  • user-avatar
    Anmelden

    Stündliche Wetter Kabul

    Heute, 21 Oktober, Samstag

    Zeit Temperatur Niederschläge Wind Luftdruck Luftfeuchtigkeit
    00:00 +12°C° 0 mm 1 m/S 608 mmHg 25%
    01:00 +12°C° 0 mm 1 m/S 608 mmHg 25%
    02:00 +11°C° 0 mm 1 m/S 608 mmHg 26%
    03:00 +11°C° 0 mm 1 m/S 607 mmHg 26%
    04:00 +10°C° 0 mm 1 m/S 607 mmHg 26%
    05:00 +10°C° 0 mm 1 m/S 607 mmHg 29%
    06:00 +11°C° 0 mm 1 m/S 608 mmHg 26%
    07:00 +13°C° 0 mm 1 m/S 609 mmHg 24%
    08:00 +15°C° 0 mm 1 m/S 609 mmHg 21%
    09:00 +16°C° 0 mm 1 m/S 610 mmHg 19%
    10:00 +18°C° 0 mm 1 m/S 610 mmHg 16%
    11:00 +19°C° 0 mm 2 m/S 610 mmHg 13%
    12:00 +20°C° 0 mm 2 m/S 610 mmHg 12%
    13:00 +20°C° 0 mm 2 m/S 610 mmHg 11%
    14:00 +21°C° 0 mm 2 m/S 610 mmHg 10%
    15:00 +20°C° 0 mm 2 m/S 610 mmHg 10%
    16:00 +20°C° 0 mm 3 m/S 609 mmHg 9%
    17:00 +19°C° 0 mm 3 m/S 609 mmHg 9%
    18:00 +18°C° 0 mm 2 m/S 608 mmHg 11%
    19:00 +16°C° 0 mm 2 m/S 608 mmHg 12%
    20:00 +14°C° 0 mm 2 m/S 608 mmHg 13%
    21:00 +13°C° 0 mm 2 m/S 607 mmHg 15%
    22:00 +13°C° 0 mm 2 m/S 607 mmHg 16%
    23:00 +12°C° 0 mm 2 m/S 607 mmHg 18%

    Morgen, 22 Oktober, Sonntag

    Zeit Temperatur Niederschläge Wind Luftdruck Luftfeuchtigkeit
    00:00 +10°C° 0 mm 2 m/S 607 mmHg 20%
    01:00 +11°C° 0 mm 1 m/S 606 mmHg 21%
    02:00 +10°C° 0 mm 1 m/S 606 mmHg 23%
    03:00 +10°C° 0 mm 1 m/S 606 mmHg 24%
    04:00 +9°C° 0 mm 1 m/S 605 mmHg 26%
    05:00 +9°C° 0 mm 1 m/S 605 mmHg 27%
    06:00 +10°C° 0 mm 1 m/S 606 mmHg 25%
    07:00 +11°C° 0 mm 1 m/S 607 mmHg 23%
    08:00 +12°C° 0 mm 1 m/S 608 mmHg 22%
    09:00 +14°C° 0 mm 1 m/S 608 mmHg 19%
    10:00 +15°C° 0 mm 1 m/S 608 mmHg 17%
    11:00 +18°C° 0 mm 1 m/S 609 mmHg 14%
    12:00 +18°C° 0 mm 1 m/S 609 mmHg 13%
    13:00 +18°C° 0 mm 2 m/S 608 mmHg 12%
    14:00 +18°C° 0 mm 2 m/S 608 mmHg 11%
    15:00 +18°C° 0 mm 2 m/S 608 mmHg 11%
    16:00 +18°C° 0 mm 2 m/S 608 mmHg 11%
    17:00 +17°C° 0 mm 2 m/S 608 mmHg 11%
    18:00 +16°C° 0 mm 2 m/S 607 mmHg 13%
    19:00 +14°C° 0 mm 1 m/S 607 mmHg 15%
    20:00 +12°C° 0 mm 1 m/S 607 mmHg 16%
    21:00 +12°C° 0 mm 1 m/S 607 mmHg 17%
    22:00 +11°C° 0 mm 1 m/S 606 mmHg 18%
    23:00 +10°C° 0 mm 1 m/S 606 mmHg 18%

    übermorgen, 23 Oktober, Montag

    Zeit Temperatur Niederschläge Wind Luftdruck Luftfeuchtigkeit
    00:00 +10°C° 0 mm 1 m/S 606 mmHg 19%
    01:00 +9°C° 0 mm 1 m/S 606 mmHg 19%
    02:00 +9°C° 0 mm 1 m/S 605 mmHg 20%
    03:00 +8°C° 0 mm 1 m/S 605 mmHg 21%
    04:00 +8°C° 0 mm 1 m/S 605 mmHg 21%
    05:00 +7°C° 0 mm 1 m/S 605 mmHg 22%
    06:00 +9°C° 0 mm 1 m/S 606 mmHg 20%
    07:00 +10°C° 0 mm 1 m/S 607 mmHg 18%
    08:00 +12°C° 0 mm 1 m/S 608 mmHg 16%
    09:00 +13°C° 0 mm 1 m/S 608 mmHg 15%
    10:00 +14°C° 0 mm 1 m/S 609 mmHg 13%
    11:00 +16°C° 0 mm 2 m/S 610 mmHg 12%
    12:00 +16°C° 0 mm 2 m/S 609 mmHg 11%
    13:00 +17°C° 0 mm 2 m/S 609 mmHg 11%
    14:00 +18°C° 0 mm 2 m/S 609 mmHg 10%
    15:00 +18°C° 0 mm 2 m/S 609 mmHg 10%
    16:00 +17°C° 0 mm 2 m/S 609 mmHg 11%
    17:00 +17°C° 0 mm 2 m/S 609 mmHg 11%
    18:00 +15°C° 0 mm 2 m/S 609 mmHg 13%
    19:00 +14°C° 0 mm 1 m/S 609 mmHg 15%
    20:00 +12°C° 0 mm 1 m/S 609 mmHg 16%
    21:00 +11°C° 0 mm 1 m/S 609 mmHg 17%
    22:00 +11°C° 0 mm 1 m/S 609 mmHg 18%
    23:00 +10°C° 0 mm 1 m/S 609 mmHg 18%

    24 Oktober, Dienstag

    Zeit Temperatur Niederschläge Wind Luftdruck Luftfeuchtigkeit
    00:00 +10°C° 0 mm 1 m/S 609 mmHg 19%
    01:00 +10°C° 0 mm 1 m/S 609 mmHg 19%
    02:00 +9°C° 0 mm 1 m/S 608 mmHg 19%
    03:00 +9°C° 0 mm 1 m/S 609 mmHg 20%
    04:00 +8°C° 0 mm 2 m/S 609 mmHg 20%
    05:00 +8°C° 0 mm 2 m/S 609 mmHg 21%
    06:00 +9°C° 0 mm 2 m/S 610 mmHg 20%
    07:00 +10°C° 0 mm 2 m/S 611 mmHg 19%
    08:00 +12°C° 0 mm 2 m/S 612 mmHg 18%
    09:00 +14°C° 0 mm 2 m/S 612 mmHg 15%
    10:00 +16°C° 0 mm 2 m/S 613 mmHg 13%
    11:00 +18°C° 0 mm 2 m/S 614 mmHg 11%
    12:00 +19°C° 0 mm 2 m/S 614 mmHg 10%
    13:00 +19°C° 0 mm 3 m/S 614 mmHg 9%
    14:00 +20°C° 0 mm 3 m/S 613 mmHg 8%
    15:00 +20°C° 0 mm 3 m/S 613 mmHg 9%
    16:00 +19°C° 0 mm 2 m/S 613 mmHg 9%
    17:00 +19°C° 0 mm 2 m/S 613 mmHg 9%
    18:00 +17°C° 0 mm 2 m/S 613 mmHg 11%
    19:00 +15°C° 0 mm 2 m/S 612 mmHg 12%
    20:00 +14°C° 0 mm 2 m/S 612 mmHg 14%
    21:00 +13°C° 0 mm 2 m/S 612 mmHg 14%
    22:00 +12°C° 0 mm 2 m/S 612 mmHg 14%
    23:00 +12°C° 0 mm 2 m/S 611 mmHg 15%

    25 Oktober, Mittwoch

    Zeit Temperatur Niederschläge Wind Luftdruck Luftfeuchtigkeit
    00:00 +10°C° 0 mm 2 m/S 611 mmHg 14%
    01:00 +10°C° 0 mm 2 m/S 611 mmHg 14%
    02:00 +10°C° 0 mm 2 m/S 610 mmHg 14%
    03:00 +9°C° 0 mm 2 m/S 610 mmHg 15%
    04:00 +9°C° 0 mm 2 m/S 610 mmHg 15%
    05:00 +9°C° 0 mm 2 m/S 610 mmHg 15%
    06:00 +10°C° 0 mm 2 m/S 611 mmHg 14%
    07:00 +12°C° 0 mm 2 m/S 611 mmHg 14%
    08:00 +13°C° 0 mm 2 m/S 612 mmHg 13%
    09:00 +16°C° 0 mm 2 m/S 613 mmHg 11%
    10:00 +18°C° 0 mm 2 m/S 614 mmHg 9%
    11:00 +21°C° 0 mm 1 m/S 614 mmHg 7%
    12:00 +21°C° 0 mm 2 m/S 614 mmHg 7%
    13:00 +21°C° 0 mm 2 m/S 614 mmHg 6%
    14:00 +23°C° 0 mm 2 m/S 614 mmHg 6%
    15:00 +21°C° 0 mm 2 m/S 614 mmHg 7%
    16:00 +21°C° 0 mm 2 m/S 614 mmHg 7%
    17:00 +20°C° 0 mm 2 m/S 613 mmHg 8%
    18:00 +18°C° 0 mm 2 m/S 613 mmHg 9%
    19:00 +16°C° 0 mm 2 m/S 613 mmHg 11%
    20:00 +14°C° 0 mm 2 m/S 613 mmHg 12%
    21:00 +13°C° 0 mm 2 m/S 612 mmHg 13%
    22:00 +13°C° 0 mm 2 m/S 612 mmHg 14%
    23:00 +12°C° 0 mm 2 m/S 612 mmHg 14%

    26 Oktober, Donnerstag

    Zeit Temperatur Niederschläge Wind Luftdruck Luftfeuchtigkeit
    00:00 +12°C° 0 mm 2 m/S 612 mmHg 15%
    01:00 +10°C° 0 mm 2 m/S 611 mmHg 15%
    02:00 +10°C° 0 mm 2 m/S 611 mmHg 16%
    03:00 +10°C° 0 mm 2 m/S 611 mmHg 17%
    04:00 +9°C° 0 mm 2 m/S 611 mmHg 17%
    05:00 +9°C° 0 mm 2 m/S 611 mmHg 17%
    06:00 +10°C° 0 mm 2 m/S 611 mmHg 17%
    07:00 +12°C° 0 mm 2 m/S 612 mmHg 16%
    08:00 +13°C° 0 mm 2 m/S 613 mmHg 15%
    09:00 +15°C° 0 mm 2 m/S 613 mmHg 14%
    10:00 +18°C° 0 mm 1 m/S 614 mmHg 12%
    11:00 +19°C° 0 mm 1 m/S 614 mmHg 10%
    12:00 +20°C° 0 mm 1 m/S 614 mmHg 9%
    13:00 +21°C° 0 mm 1 m/S 614 mmHg 9%
    14:00 +20°C° 0 mm 2 m/S 613 mmHg 8%
    15:00 +20°C° 0 mm 2 m/S 613 mmHg 9%
    16:00 +19°C° 0 mm 2 m/S 613 mmHg 9%
    17:00 +19°C° 0 mm 2 m/S 613 mmHg 10%
    18:00 +18°C° 0 mm 1 m/S 613 mmHg 12%
    19:00 +15°C° 0 mm 1 m/S 612 mmHg 14%
    20:00 +13°C° 0 mm 1 m/S 612 mmHg 15%
    21:00 +13°C° 0 mm 1 m/S 612 mmHg 16%
    22:00 +12°C° 0 mm 1 m/S 611 mmHg 17%
    23:00 +11°C° 0 mm 1 m/S 611 mmHg 17%
    Mehr zeigen